����������;��������(kVARh)
2018-08-13 00:00;3,2
2018-08-13 00:15;3,3
2018-08-13 00:30;4,4
2018-08-13 00:45;2,45
2018-08-13 01:00;0,75
2018-08-13 01:15;1,2
2018-08-13 01:30;0,9
2018-08-13 01:45;0
2018-08-13 02:00;0
2018-08-13 02:15;0,25
2018-08-13 02:30;0,15
2018-08-13 02:45;0,05
2018-08-13 03:00;0
2018-08-13 03:15;0,15
2018-08-13 03:30;0,45
2018-08-13 03:45;1,15
2018-08-13 04:00;1,3
2018-08-13 04:15;1,1
2018-08-13 04:30;2,55
2018-08-13 04:45;1,6
2018-08-13 05:00;2,35
2018-08-13 05:15;2,95
2018-08-13 05:30;1,55
2018-08-13 05:45;2,4
2018-08-13 06:00;1,25
2018-08-13 06:15;1
2018-08-13 06:30;1,75
2018-08-13 06:45;2,25
2018-08-13 07:00;0,75
2018-08-13 07:15;0
2018-08-13 07:30;1,35
2018-08-13 07:45;0,55
2018-08-13 08:00;0,4
2018-08-13 08:15;1,85
2018-08-13 08:30;1,2
2018-08-13 08:45;0,75
2018-08-13 09:00;1
2018-08-13 09:15;0,6
2018-08-13 09:30;0
2018-08-13 09:45;0,2
2018-08-13 10:00;0,05
2018-08-13 10:15;0,25
2018-08-13 10:30;0,1
2018-08-13 10:45;0
2018-08-13 11:00;0,75
2018-08-13 11:15;0,25
2018-08-13 11:30;0,6
2018-08-13 11:45;0,95
2018-08-13 12:00;4,85
2018-08-13 12:15;5,6
2018-08-13 12:30;4,7
2018-08-13 12:45;6,4
2018-08-13 13:00;6
2018-08-13 13:15;6,6
2018-08-13 13:30;5,45
2018-08-13 13:45;0,8
2018-08-13 14:00;0
2018-08-13 14:15;0
2018-08-13 14:30;0
2018-08-13 14:45;0
2018-08-13 15:00;0
2018-08-13 15:15;0
2018-08-13 15:30;0
2018-08-13 15:45;0
2018-08-13 16:00;0
2018-08-13 16:15;0
2018-08-13 16:30;0
2018-08-13 16:45;0
2018-08-13 17:00;0
2018-08-13 17:15;0
2018-08-13 17:30;0
2018-08-13 17:45;2,05
2018-08-13 18:00;4,2
2018-08-13 18:15;2,7
2018-08-13 18:30;3,6
2018-08-13 18:45;3,75
2018-08-13 19:00;3,2
2018-08-13 19:15;3,45
2018-08-13 19:30;3,85
2018-08-13 19:45;5,6
2018-08-13 20:00;4,85
2018-08-13 20:15;4,9
2018-08-13 20:30;4,8
2018-08-13 20:45;3,4
2018-08-13 21:00;4,05
2018-08-13 21:15;4,65
2018-08-13 21:30;6,6
2018-08-13 21:45;7,2
2018-08-13 22:00;6,7
2018-08-13 22:15;6,85
2018-08-13 22:30;5
2018-08-13 22:45;4,55
2018-08-13 23:00;7,45
2018-08-13 23:15;6,9
2018-08-13 23:30;10,5
2018-08-13 23:45;11,9
2018-08-14 00:00;9,15
2018-08-14 00:15;12,45
2018-08-14 00:30;8,65
2018-08-14 00:45;8,45
2018-08-14 01:00;12,25
2018-08-14 01:15;10,3
2018-08-14 01:30;11,7
2018-08-14 01:45;10,7
2018-08-14 02:00;6,9
2018-08-14 02:15;7,4
2018-08-14 02:30;7,55
2018-08-14 02:45;8,05
2018-08-14 03:00;9,15
2018-08-14 03:15;8,45
2018-08-14 03:30;9,9
2018-08-14 03:45;11,45
2018-08-14 04:00;9,95
2018-08-14 04:15;10,4
2018-08-14 04:30;11,55
2018-08-14 04:45;10,4
2018-08-14 05:00;11,2
2018-08-14 05:15;12,05
2018-08-14 05:30;11,2
2018-08-14 05:45;10,9
2018-08-14 06:00;11,4
2018-08-14 06:15;8,5
2018-08-14 06:30;7,6
2018-08-14 06:45;9,2
2018-08-14 07:00;7,5
2018-08-14 07:15;7
2018-08-14 07:30;4,55
2018-08-14 07:45;2,55
2018-08-14 08:00;1,5
2018-08-14 08:15;0,6
2018-08-14 08:30;1,6
2018-08-14 08:45;6,2
2018-08-14 09:00;4,85
2018-08-14 09:15;3,75
2018-08-14 09:30;5,3
2018-08-14 09:45;3,45
2018-08-14 10:00;3,3
2018-08-14 10:15;2,3
2018-08-14 10:30;4,6
2018-08-14 10:45;2,35
2018-08-14 11:00;1,8
2018-08-14 11:15;3,15
2018-08-14 11:30;4,65
2018-08-14 11:45;3,6
2018-08-14 12:00;7,4
2018-08-14 12:15;8,7
2018-08-14 12:30;8,55
2018-08-14 12:45;6,95
2018-08-14 13:00;7,85
2018-08-14 13:15;6,8
2018-08-14 13:30;6,4
2018-08-14 13:45;8
2018-08-14 14:00;8,2
2018-08-14 14:15;7,95
2018-08-14 14:30;6,9
2018-08-14 14:45;8,75
2018-08-14 15:00;6,35
2018-08-14 15:15;6,4
2018-08-14 15:30;6,6
2018-08-14 15:45;8,4
2018-08-14 16:00;5
2018-08-14 16:15;5
2018-08-14 16:30;7,25
2018-08-14 16:45;7,2
2018-08-14 17:00;7
2018-08-14 17:15;5,75
2018-08-14 17:30;5,2
2018-08-14 17:45;3,6
2018-08-14 18:00;5
2018-08-14 18:15;3,1
2018-08-14 18:30;2,45
2018-08-14 18:45;2,75
2018-08-14 19:00;3,4
2018-08-14 19:15;3,3
2018-08-14 19:30;3,55
2018-08-14 19:45;6,4
2018-08-14 20:00;5,6
2018-08-14 20:15;6,9
2018-08-14 20:30;6,2
2018-08-14 20:45;5
2018-08-14 21:00;5,65
2018-08-14 21:15;7,15
2018-08-14 21:30;8,95
2018-08-14 21:45;9,15
2018-08-14 22:00;9,85
2018-08-14 22:15;7,8
2018-08-14 22:30;5,9
2018-08-14 22:45;4,65
2018-08-14 23:00;6,3
2018-08-14 23:15;4,75
2018-08-14 23:30;7
2018-08-14 23:45;8,8
2018-08-15 00:00;7
2018-08-15 00:15;8,45
2018-08-15 00:30;8,65
2018-08-15 00:45;10,8
2018-08-15 01:00;12,2
2018-08-15 01:15;2,05
2018-08-15 01:30;0,1
2018-08-15 01:45;0,05
2018-08-15 02:00;0,05
2018-08-15 02:15;0
2018-08-15 02:30;0,1
2018-08-15 02:45;0,05
2018-08-15 03:00;0
2018-08-15 03:15;0,1
2018-08-15 03:30;0,85
2018-08-15 03:45;1,15
2018-08-15 04:00;2
2018-08-15 04:15;1,85
2018-08-15 04:30;1,35
2018-08-15 04:45;2,55
2018-08-15 05:00;1,95
2018-08-15 05:15;2,35
2018-08-15 05:30;1,85
2018-08-15 05:45;3,1
2018-08-15 06:00;1,5
2018-08-15 06:15;1
2018-08-15 06:30;1
2018-08-15 06:45;1,55
2018-08-15 07:00;1,05
2018-08-15 07:15;0,75
2018-08-15 07:30;0,05
2018-08-15 07:45;0,05
2018-08-15 08:00;0
2018-08-15 08:15;0
2018-08-15 08:30;0,6
2018-08-15 08:45;2,95
2018-08-15 09:00;3,2
2018-08-15 09:15;7,8
2018-08-15 09:30;5,9
2018-08-15 09:45;6,45
2018-08-15 10:00;3,8
2018-08-15 10:15;4,95
2018-08-15 10:30;3,35
2018-08-15 10:45;3,35
2018-08-15 11:00;1,95
2018-08-15 11:15;1,25
2018-08-15 11:30;1
2018-08-15 11:45;1,45
2018-08-15 12:00;2,5
2018-08-15 12:15;2,5
2018-08-15 12:30;3,75
2018-08-15 12:45;4,85
2018-08-15 13:00;2,8
2018-08-15 13:15;2,4
2018-08-15 13:30;2,05
2018-08-15 13:45;2,2
2018-08-15 14:00;2,55
2018-08-15 14:15;4,55
2018-08-15 14:30;3,4
2018-08-15 14:45;4,3
2018-08-15 15:00;4,5
2018-08-15 15:15;3,75
2018-08-15 15:30;3,6
2018-08-15 15:45;4,8
2018-08-15 16:00;3,45
2018-08-15 16:15;5,05
2018-08-15 16:30;4,55
2018-08-15 16:45;4
2018-08-15 17:00;3,3
2018-08-15 17:15;1,65
2018-08-15 17:30;3,45
2018-08-15 17:45;2,95
2018-08-15 18:00;3
2018-08-15 18:15;2,55
2018-08-15 18:30;1,8
2018-08-15 18:45;1,7
2018-08-15 19:00;0,45
2018-08-15 19:15;0,55
2018-08-15 19:30;1,1
2018-08-15 19:45;3,05
2018-08-15 20:00;3,15
2018-08-15 20:15;4,9
2018-08-15 20:30;5,45
2018-08-15 20:45;3,75
2018-08-15 21:00;3,2
2018-08-15 21:15;3,1
2018-08-15 21:30;3,65
2018-08-15 21:45;4,65
2018-08-15 22:00;5
2018-08-15 22:15;5,1
2018-08-15 22:30;2,75
2018-08-15 22:45;4,7
2018-08-15 23:00;5,5
2018-08-15 23:15;4,25
2018-08-15 23:30;7,2
2018-08-15 23:45;6,5
2018-08-16 00:00;1,15
2018-08-16 00:15;0
2018-08-16 00:30;0
2018-08-16 00:45;0
2018-08-16 01:00;0
2018-08-16 01:15;0
2018-08-16 01:30;0
2018-08-16 01:45;0,1
2018-08-16 02:00;0,35
2018-08-16 02:15;0,85
2018-08-16 02:30;0,3
2018-08-16 02:45;0,05
2018-08-16 03:00;0,2
2018-08-16 03:15;0,25
2018-08-16 03:30;0,45
2018-08-16 03:45;1,05
2018-08-16 04:00;0,9
2018-08-16 04:15;1,15
2018-08-16 04:30;1,1
2018-08-16 04:45;2,1
2018-08-16 05:00;1,15
2018-08-16 05:15;1
2018-08-16 05:30;1,4
2018-08-16 05:45;2,5
2018-08-16 06:00;0,95
2018-08-16 06:15;0,1
2018-08-16 06:30;0,05
2018-08-16 06:45;0,05
2018-08-16 07:00;0
2018-08-16 07:15;0
2018-08-16 07:30;0
2018-08-16 07:45;2,2
2018-08-16 08:00;0,4
2018-08-16 08:15;0
2018-08-16 08:30;5
2018-08-16 08:45;4,6
2018-08-16 09:00;3,55
2018-08-16 09:15;1,45
2018-08-16 09:30;2,4
2018-08-16 09:45;2,95
2018-08-16 10:00;2,9
2018-08-16 10:15;2,5
2018-08-16 10:30;6,15
2018-08-16 10:45;4,6
2018-08-16 11:00;6,2
2018-08-16 11:15;6,8
2018-08-16 11:30;6,8
2018-08-16 11:45;7
2018-08-16 12:00;5,75
2018-08-16 12:15;5,65
2018-08-16 12:30;4,1
2018-08-16 12:45;5,25
2018-08-16 13:00;3,55
2018-08-16 13:15;4,2
2018-08-16 13:30;3
2018-08-16 13:45;3,1
2018-08-16 14:00;3,2
2018-08-16 14:15;3,6
2018-08-16 14:30;5,25
2018-08-16 14:45;5,85
2018-08-16 15:00;6,25
2018-08-16 15:15;5,85
2018-08-16 15:30;6,7
2018-08-16 15:45;7,35
2018-08-16 16:00;9,15
2018-08-16 16:15;7,9
2018-08-16 16:30;8,25
2018-08-16 16:45;7,3
2018-08-16 17:00;6,75
2018-08-16 17:15;6,85
2018-08-16 17:30;4,75
2018-08-16 17:45;5,6
2018-08-16 18:00;2,8
2018-08-16 18:15;2,35
2018-08-16 18:30;1,8
2018-08-16 18:45;2,7
2018-08-16 19:00;2,65
2018-08-16 19:15;2,8
2018-08-16 19:30;4
2018-08-16 19:45;4,05
2018-08-16 20:00;4,15
2018-08-16 20:15;3,8
2018-08-16 20:30;3,6
2018-08-16 20:45;2,95
2018-08-16 21:00;3,2
2018-08-16 21:15;5,45
2018-08-16 21:30;5,65
2018-08-16 21:45;8,3
2018-08-16 22:00;9,25
2018-08-16 22:15;10,25
2018-08-16 22:30;10,35
2018-08-16 22:45;6,6
2018-08-16 23:00;7,9
2018-08-16 23:15;6,8
2018-08-16 23:30;8,65
2018-08-16 23:45;11,15
2018-08-17 00:00;8,65
2018-08-17 00:15;8,85
2018-08-17 00:30;8,65
2018-08-17 00:45;8,3
2018-08-17 01:00;8,3
2018-08-17 01:15;8,7
2018-08-17 01:30;2,4
2018-08-17 01:45;2,3
2018-08-17 02:00;2,45
2018-08-17 02:15;3,65
2018-08-17 02:30;3,75
2018-08-17 02:45;4,1
2018-08-17 03:00;3,5
2018-08-17 03:15;4,25
2018-08-17 03:30;4,7
2018-08-17 03:45;4,75
2018-08-17 04:00;4,4
2018-08-17 04:15;3,6
2018-08-17 04:30;4,8
2018-08-17 04:45;4,05
2018-08-17 05:00;4,2
2018-08-17 05:15;3,5
2018-08-17 05:30;3,75
2018-08-17 05:45;4,75
2018-08-17 06:00;3
2018-08-17 06:15;3,3
2018-08-17 06:30;2,45
2018-08-17 06:45;4,2
2018-08-17 07:00;2,65
2018-08-17 07:15;5,75
2018-08-17 07:30;5,3
2018-08-17 07:45;5,2
2018-08-17 08:00;3,7
2018-08-17 08:15;7
2018-08-17 08:30;6,75
2018-08-17 08:45;5,55
2018-08-17 09:00;3,9
2018-08-17 09:15;2,85
2018-08-17 09:30;1,75
2018-08-17 09:45;3,85
2018-08-17 10:00;2,45
2018-08-17 10:15;3,15
2018-08-17 10:30;2,1
2018-08-17 10:45;5,25
2018-08-17 11:00;4,7
2018-08-17 11:15;3,85
2018-08-17 11:30;4
2018-08-17 11:45;4,1
2018-08-17 12:00;4,7
2018-08-17 12:15;4,4
2018-08-17 12:30;4,35
2018-08-17 12:45;4,45
2018-08-17 13:00;3,1
2018-08-17 13:15;3,3
2018-08-17 13:30;2,35
2018-08-17 13:45;3,65
2018-08-17 14:00;2,75
2018-08-17 14:15;4,5
2018-08-17 14:30;3,4
2018-08-17 14:45;4,9
2018-08-17 15:00;4,2
2018-08-17 15:15;2,75
2018-08-17 15:30;3,65
2018-08-17 15:45;3,4
2018-08-17 16:00;4,55
2018-08-17 16:15;4,6
2018-08-17 16:30;4,3
2018-08-17 16:45;4,2
2018-08-17 17:00;2,2
2018-08-17 17:15;2,65
2018-08-17 17:30;1,6
2018-08-17 17:45;0,75
2018-08-17 18:00;0,55
2018-08-17 18:15;0,95
2018-08-17 18:30;0,75
2018-08-17 18:45;0,4
2018-08-17 19:00;0,3
2018-08-17 19:15;0,35
2018-08-17 19:30;0,95
2018-08-17 19:45;1,8
2018-08-17 20:00;4,75
2018-08-17 20:15;4,2
2018-08-17 20:30;4,45
2018-08-17 20:45;3,35
2018-08-17 21:00;3,35
2018-08-17 21:15;4,8
2018-08-17 21:30;8,05
2018-08-17 21:45;8,1
2018-08-17 22:00;9,4
2018-08-17 22:15;8,25
2018-08-17 22:30;8
2018-08-17 22:45;6,5
2018-08-17 23:00;11,1
2018-08-17 23:15;9,8
2018-08-17 23:30;11,8
2018-08-17 23:45;13,8
2018-08-18 00:00;10,25
2018-08-18 00:15;11,55
2018-08-18 00:30;9,1
2018-08-18 00:45;5,35
2018-08-18 01:00;4,2
2018-08-18 01:15;5,35
2018-08-18 01:30;4,3
2018-08-18 01:45;6,6
2018-08-18 02:00;6,1
2018-08-18 02:15;6,1
2018-08-18 02:30;6,85
2018-08-18 02:45;6,7
2018-08-18 03:00;7,7
2018-08-18 03:15;7
2018-08-18 03:30;7,9
2018-08-18 03:45;9,35
2018-08-18 04:00;10,35
2018-08-18 04:15;14,85
2018-08-18 04:30;13,3
2018-08-18 04:45;13,8
2018-08-18 05:00;11,8
2018-08-18 05:15;11,6
2018-08-18 05:30;0,8
2018-08-18 05:45;0,15
2018-08-18 06:00;0
2018-08-18 06:15;0
2018-08-18 06:30;0
2018-08-18 06:45;0
2018-08-18 07:00;0
2018-08-18 07:15;0
2018-08-18 07:30;0
2018-08-18 07:45;0
2018-08-18 08:00;0
2018-08-18 08:15;0
2018-08-18 08:30;0
2018-08-18 08:45;0
2018-08-18 09:00;0
2018-08-18 09:15;0
2018-08-18 09:30;0
2018-08-18 09:45;0
2018-08-18 10:00;0
2018-08-18 10:15;0
2018-08-18 10:30;0
2018-08-18 10:45;0
2018-08-18 11:00;0
2018-08-18 11:15;0
2018-08-18 11:30;0
2018-08-18 11:45;0
2018-08-18 12:00;0,6
2018-08-18 12:15;3,75
2018-08-18 12:30;4,1
2018-08-18 12:45;2,9
2018-08-18 13:00;3,25
2018-08-18 13:15;2,1
2018-08-18 13:30;2,05
2018-08-18 13:45;1,45
2018-08-18 14:00;2,25
2018-08-18 14:15;2,95
2018-08-18 14:30;2,85
2018-08-18 14:45;3,1
2018-08-18 15:00;2
2018-08-18 15:15;0,05
2018-08-18 15:30;0
2018-08-18 15:45;0
2018-08-18 16:00;0
2018-08-18 16:15;0
2018-08-18 16:30;0
2018-08-18 16:45;0
2018-08-18 17:00;0
2018-08-18 17:15;0
2018-08-18 17:30;0
2018-08-18 17:45;0
2018-08-18 18:00;0
2018-08-18 18:15;0
2018-08-18 18:30;0
2018-08-18 18:45;0
2018-08-18 19:00;0
2018-08-18 19:15;0
2018-08-18 19:30;0
2018-08-18 19:45;0
2018-08-18 20:00;0,15
2018-08-18 20:15;0
2018-08-18 20:30;0
2018-08-18 20:45;0
2018-08-18 21:00;0
2018-08-18 21:15;0
2018-08-18 21:30;0
2018-08-18 21:45;0
2018-08-18 22:00;0
2018-08-18 22:15;0
2018-08-18 22:30;0
2018-08-18 22:45;0
2018-08-18 23:00;0
2018-08-18 23:15;0
2018-08-18 23:30;0
2018-08-18 23:45;0
2018-08-19 00:00;0
2018-08-19 00:15;0
2018-08-19 00:30;0
2018-08-19 00:45;0
2018-08-19 01:00;1,65
2018-08-19 01:15;3,8
2018-08-19 01:30;3,6
2018-08-19 01:45;0,45
2018-08-19 02:00;0
2018-08-19 02:15;0,45
2018-08-19 02:30;0,55
2018-08-19 02:45;1,2
2018-08-19 03:00;1,3
2018-08-19 03:15;1,1
2018-08-19 03:30;1,75
2018-08-19 03:45;2,15
2018-08-19 04:00;2,75
2018-08-19 04:15;2,45
2018-08-19 04:30;3,6
2018-08-19 04:45;3,5
2018-08-19 05:00;3,15
2018-08-19 05:15;3,4
2018-08-19 05:30;3,15
2018-08-19 05:45;3,85
2018-08-19 06:00;1,95
2018-08-19 06:15;0
2018-08-19 06:30;0
2018-08-19 06:45;0
2018-08-19 07:00;0
2018-08-19 07:15;0
2018-08-19 07:30;0
2018-08-19 07:45;0
2018-08-19 08:00;0
2018-08-19 08:15;0
2018-08-19 08:30;0,4
2018-08-19 08:45;0,5
2018-08-19 09:00;0,2
2018-08-19 09:15;0
2018-08-19 09:30;0
2018-08-19 09:45;0
2018-08-19 10:00;0
2018-08-19 10:15;0
2018-08-19 10:30;0
2018-08-19 10:45;0
2018-08-19 11:00;0
2018-08-19 11:15;0
2018-08-19 11:30;0
2018-08-19 11:45;0
2018-08-19 12:00;0
2018-08-19 12:15;0
2018-08-19 12:30;0
2018-08-19 12:45;0
2018-08-19 13:00;0
2018-08-19 13:15;0
2018-08-19 13:30;0
2018-08-19 13:45;0
2018-08-19 14:00;0
2018-08-19 14:15;0
2018-08-19 14:30;0
2018-08-19 14:45;0
2018-08-19 15:00;0
2018-08-19 15:15;0
2018-08-19 15:30;0
2018-08-19 15:45;0
2018-08-19 16:00;0
2018-08-19 16:15;0
2018-08-19 16:30;0
2018-08-19 16:45;0
2018-08-19 17:00;0
2018-08-19 17:15;0
2018-08-19 17:30;0
2018-08-19 17:45;0
2018-08-19 18:00;0
2018-08-19 18:15;0
2018-08-19 18:30;0
2018-08-19 18:45;2,55
2018-08-19 19:00;3,65
2018-08-19 19:15;4,2
2018-08-19 19:30;7,1
2018-08-19 19:45;8,55
2018-08-19 20:00;8,15
2018-08-19 20:15;7,3
2018-08-19 20:30;7,1
2018-08-19 20:45;6,45
2018-08-19 21:00;7,85
2018-08-19 21:15;8,8
2018-08-19 21:30;8,4
2018-08-19 21:45;10
2018-08-19 22:00;9,5
2018-08-19 22:15;6,85
2018-08-19 22:30;6,25
2018-08-19 22:45;5,2
2018-08-19 23:00;5,5
2018-08-19 23:15;4,35
2018-08-19 23:30;7,25
2018-08-19 23:45;7,85

